Regional Weather Roundup
Issued by NWS

Home | Current Version | Previous Version | Text Only | Print | Product List | Glossary Off
Versions: 1 2 3 4 5 6 7 8 9 10 11 12 13 14 15 16 17 18 19 20 21 22 23 24 25 26 27 28 29 30 31 32 33 34 35 36 37 38 39 40 41 42 43 44 45

000
ASUS45 KBOU 250110
RWRCO

WEATHER ROUNDUP FOR COLORADO
NATIONAL WEATHER SERVICE DENVER/BOULDER CO
600 PM MST SAT FEB 24 2018

NOTE: "FAIR" INDICATES FEW OR NO CLOUDS BELOW 12000 FEET WITH NO
SIGNIFICANT WEATHER AND/OR OBSTRUCTIONS TO VISIBILITY.

COZ001>005-013-030-031-250200-
...NORTHWEST COLORADO...

CITY           SKY/WX    TMP DP  RH WIND       PRES   REMARKS
CRAIG          CLOUDY    19   8  62 SW5       29.88S WCI  12
HAYDEN         MOCLDY    18   5  57 NW3       29.88S
MEEKER         CLOUDY    22   7  52 S8        29.86F WCI  12
RANGELY        CLOUDY    27   9  46 CALM      29.90S
RABBIT EARS PA CLOUDY   N/A N/A N/A W10G16    29.69S
STEAMBOAT SPGS CLOUDY    15   4  60 CALM      29.85S
WALDEN         CLOUDY    14  -2  48 SW12      29.79S WCI   0
$$

COZ006>008-011-250200-
...WEST CENTRAL VALLEYS...

CITY           SKY/WX    TMP DP  RH WIND       PRES   REMARKS
GRAND JUNCTION CLOUDY    32   8  36 W7        29.93S WCI  26
MONTROSE       FAIR      29   4  34 W6        29.94F WCI  23
EAGLE          MOCLDY    21  12  68 S12       29.89F WCI   9
RIFLE          MOCLDY    23   8  52 S8        29.92S WCI  14
DELTA          CLOUDY    35   4  27 SW10      29.94R WCI  27
NUCLA          CLOUDY    28  12  50 SW3       29.97S
$$

COZ017>023-064>068-250200-
...SOUTHWEST COLORADO...

CITY           SKY/WX    TMP DP  RH WIND       PRES   REMARKS
DURANGO        FAIR      27   0  31 W13       29.94S WCI  16
CORTEZ         FAIR      30   7  37 S3        29.95F
PAGOSA SPRINGS FAIR      26  -2  30 SW10      29.93R WCI  15
TELLURIDE      FAIR      18  -4  38 E3        29.85F
WOLF CREEK PAS MOCLDY     1   0  92 S26G38    29.78F WCI -23
$$

COZ009-010-012-014-032>034-037-058>063-250200-
...CENTRAL COLORADO...

CITY           SKY/WX    TMP DP  RH WIND       PRES   REMARKS
ASPEN          MOCLDY    15   5  64 S5        29.82S WCI   8
BUENA VISTA    FAIR      20  -7  30 NW5       29.80R WCI  14
COPPER MTN     CLOUDY     3  -4  72 W3        29.68R
BERTHOUD PASS  MOCLDY    -6 -15  65 W32G38    29.59R WCI -35
COTTONWOOD PAS CLOUDY    19  -2  38 W16G24    29.74R WCI   5
GUNNISON       FAIR      21  -1  38 NW8       29.86R WCI  11
GRANBY         MOCLDY    14  -1  50 W7        29.79S WCI   4
KREMMLING      FAIR      23   1  39 NW5       29.83S WCI  17
LEADVILLE      FAIR       6  -3  66 N5        29.73R WCI  -3
MONARCH PASS   MOCLDY     1  -6  71 SW30G40   29.80R WCI -24
SALIDA         FAIR      25  -5  26 W12G17    29.89R WCI  15
SUNLIGHT       LGT SNOW   3   0  85 SW14G23   29.75F VSB 1   WCI -15
WILKERSON PASS FAIR       9  -9  43 SW10G21   29.70R WCI  -6
$$

COZ069>075-250200-
...SAN LUIS VALLEY/SANGRE DE CRISTO MOUNTAINS...

CITY           SKY/WX    TMP DP  RH WIND       PRES   REMARKS
ALAMOSA        FAIR      26  -4  27 SW15      29.84R WCI  14
DEL NORTE      FAIR      24  -1  33 SW17G24   29.83R WCI  10
LA VETA PASS   FAIR      16  -4  41 S29G43    29.83F WCI  -4
SAGUACHE       FAIR      23  -2  33 NW10G20   29.82R WCI  12
$$

COZ035-036-038>040-250200-
...NORTHERN COLORADO FRONT RANGE...

CITY           SKY/WX    TMP DP  RH WIND       PRES   REMARKS
DENVER INTL AP FAIR      30   1  29 W14       29.75R WCI  19
AURORA         PTCLDY    27   2  34 NW18      29.75R WCI  14
FRONT RANGE AP PTCLDY    30   1  29 NW10      29.77R WCI  21
ERIE MUNI ARPT FAIR      30   2  30 CALM      29.83R
BOULDER MUN AP FAIR      32   0  25 SE5       29.76R WCI  27
CENTENNIAL     FAIR      29   4  34 N9        29.74R WCI  20
BROOMFIELD     PTCLDY    28   1  31 NW16G25   29.75R WCI  17
FORT COLLINS   FAIR      28   6  39 E14       29.76R WCI  17
LONGMONT       FAIR      29   3  33 N3        29.79R
$$

COZ041-046-047-076>085-087-088-250200-
...PIKES PEAK/PALMER DIVIDE AND SOUTHERN FOOTHILLS...

CITY           SKY/WX    TMP DP  RH WIND       PRES   REMARKS
COLO. SPRINGS  FAIR      31   0  26 N12       29.74R WCI  22
A. F. ACADEMY  FAIR      30  -4  22 E3        29.74R
SCHRIEVER AFB  NOT AVBL
CHEYENNE MTN   FAIR      27  -1  29 SW3       29.68R
ELLICOTT         N/A    N/A N/A N/A NW8       29.74R
FALCON         FAIR      29  -8  20 MISG      29.75R
FORT CARSON    FAIR      35  -8  15 SW7       29.73R WCI  30
LIMON          FAIR      22   4  46 N5        29.77R WCI  16
MONUMENT HILL  FAIR      23   3  42 NE3       29.75R
CANON CITY     CLEAR     37  -8  14 W15       29.74S
WALSENBURG     NOT AVBL
TRINIDAD       FAIR      35  -6  17 SW14      29.79R WCI  26
$$

COZ042>045-048>051-090-091-250200-
...NORTHEAST COLORADO...

CITY           SKY/WX    TMP DP  RH WIND       PRES   REMARKS
GREELEY ARPT   FAIR      27  15  61 N7        29.79R WCI  19
AKRON          FAIR      26   6  42 N18       29.78R WCI  13
BURLINGTON     FAIR      29  12  49 NE7       29.81R WCI  22
WRAY           FAIR      32  12  43 NW12      29.82R WCI  23
YUMA           NOT AVBL
STERLING       FAIR      30   7  37 NW12      29.81R WCI  21
HOLYOKE        FAIR      32  12  43 NW10      29.82R WCI  24
FORT MORGAN    FAIR      29   1  30 NW20G25   29.80R WCI  16
$$

COZ086-089-092>099-250200-
...SOUTHEAST COLORADO...

CITY           SKY/WX    TMP DP  RH WIND       PRES   REMARKS
PUEBLO         FAIR      39  -3  17 NW10      29.76R
LA JUNTA       FAIR      35   1  23 W8        29.78R WCI  29
LAMAR          FAIR      43  -2  15 CALM      29.77R
SPRINGFIELD      N/A     30  -4  23 CALM      29.81R
$$




USA.gov is the U.S. government's official web portal to all federal, state and local government web resources and services.